Flag for Norway Weather past 2 weeks in Hommersåk, Norway

Now
48 °F

Passing clouds.


Feels Like: 42 °F
Forecast: 45 / 49 °F
Wind: 15 mph from South

Location: Stavanger / Sola

Current Time: May 6, 2015 at 4:24:13 AM

Latest Report: May 6, 2015 at 3:50 AM


Visibility: N/A

Pressure: 29.42 "Hg

Humidity: 87%

Dew point: 45 °F

Location of HommersåkLocation

Historic Weather in Hommersåk — Graph

°F

Hommersåk temperature yesterday

Maximum temperature yesterday: 61 °F (at 4:50 PM)
Minimum temperature yesterday: 43 °F (at 4:50 AM)
Average temperature yesterday: 53 °F

Past Weeks' High & Low Weather Summary

 TemperatureHumidityPressure
High61 °F (May 5, 4:50 PM)100% (Apr 21, 2:50 AM)30.42 "Hg (Apr 21, 2:50 AM)
Low34 °F (May 3, 4:50 AM)32% (Apr 28, 5:20 PM)29.15 "Hg (May 5, 4:50 PM)
Average46 °F76%29.77 "Hg
* Reported Apr 21 2:50 AM — May 6 2:50 AM, Hommersåk, Weather by CustomWeather, © 2015

Note: Actual official high and low records may vary slightly from our data, if they occured in-between our weather recording intervals... More about our weather records

Advertising

Hommersåk weather history for previous 24 hours

 ConditionsComfort  
Time TempWeatherWind HumidityBarometerVisibility
2:50 AM
Wed, May 6
48 °FPassing clouds.15 mph82%29.42 "HgN/A
1:50 AM48 °FPassing clouds.16 mph82%29.39 "HgN/A
12:50 AM48 °FPassing clouds.14 mph87%29.39 "HgN/A
12:20 AM48 °FPartly cloudy.16 mph94%29.36 "HgN/A
11:50 PM
Tue, May 5
50 °FDrizzle. Mostly cloudy.18 mph88%29.33 "Hg5 mi
11:20 PM50 °FPassing clouds.20 mph94%29.30 "Hg4 mi
10:50 PM52 °FPassing clouds.21 mph94%29.27 "Hg4 mi
10:20 PM54 °FDrizzle. Broken clouds.18 mph94%29.24 "Hg6 mi
9:50 PM54 °FDrizzle. Cloudy.12 mph94%29.24 "Hg2 mi
9:20 PM54 °FDrizzle. Mostly cloudy.13 mph94%29.24 "Hg5 mi
8:50 PM55 °FDrizzle. More clouds than sun.15 mph82%29.21 "Hg5 mi
8:20 PM55 °FSprinkles. Partly sunny.16 mph82%29.21 "HgN/A
7:50 PM57 °FDrizzle. Partly sunny.16 mph77%29.21 "HgN/A
7:20 PM59 °FSprinkles. Partly sunny.16 mph68%29.21 "HgN/A
6:50 PM59 °FPartly sunny.18 mph63%29.21 "HgN/A
6:20 PM59 °FMostly cloudy.22 mph63%29.21 "HgN/A
5:50 PM61 °FPartly sunny.26 mph59%29.18 "HgN/A
5:20 PM61 °FBroken clouds.30 mph59%29.18 "HgN/A
4:50 PM61 °FBroken clouds.35 mph59%29.15 "HgN/A
4:20 PM59 °FBroken clouds.31 mph63%29.18 "HgN/A
3:50 PM59 °FBroken clouds.26 mph59%29.21 "HgN/A
3:20 PM57 °FScattered showers. Broken clouds.22 mph59%29.24 "HgN/A
2:50 PM55 °FRain showers. Partly sunny.21 mph63%29.27 "HgN/A
2:20 PM55 °FBroken clouds.25 mph63%29.30 "HgN/A
1:50 PM54 °FLight rain. Broken clouds.18 mph67%29.36 "HgN/A
1:20 PM55 °FLight rain. Broken clouds.18 mph63%29.39 "HgN/A
12:50 PM55 °FLight rain. Broken clouds.17 mph63%29.42 "HgN/A
12:20 PM55 °FPartly sunny.17 mph63%29.42 "HgN/A
11:50 AM57 °FPartly sunny.20 mph59%29.45 "HgN/A
11:20 AM57 °FBroken clouds.16 mph59%29.47 "HgN/A
10:50 AM55 °FPartly sunny.17 mph63%29.50 "HgN/A
10:20 AM57 °FPartly sunny.15 mph59%29.50 "HgN/A
9:50 AM55 °FPartly sunny.13 mph63%29.53 "HgN/A
9:20 AM55 °FPartly sunny.13 mph63%29.53 "HgN/A
8:50 AM54 °FPartly sunny.2 mph63%29.56 "HgN/A
8:20 AM52 °FPartly sunny.No wind72%29.59 "HgN/A
7:50 AM50 °FPartly sunny.3 mph71%29.59 "HgN/A
7:20 AM46 °FPartly sunny.3 mph87%29.59 "HgN/A
6:50 AM45 °FPartly sunny.6 mph93%29.59 "HgN/A
6:20 AM43 °FPassing clouds.1 mph100%29.62 "HgN/A
5:50 AM43 °FPassing clouds.2 mph100%29.62 "HgN/A
4:50 AM43 °FPassing clouds.3 mph93%29.65 "HgN/A
Weather by CustomWeather, © 2015

See weather overviewHow to use our weather pages